This is the latest recevied weather packets stored in our database for station/object DC4AT. If no packets are shown the sender has not sent any weather packets the latest 10 day(s).
| Time | Temp. | Humidity | Pressure | Rain* | Wind** | Luminosity | Snow |
|---|---|---|---|---|---|---|---|
| 1787986652 | 15.56° C | 85% | 1012.5 hPa | 0 mm | - | 63 W/m² | - |
| 1787986052 | 15.56° C | 86% | 1012.4 hPa | 0 mm | - | 202 W/m² | - |
| 1787985452 | 15° C | 86% | 1012.4 hPa | 0 mm | - | 241 W/m² | - |
| 1787984852 | 13.89° C | 86% | 1012.4 hPa | 0 mm | - | 213 W/m² | - |
| 1787984252 | 13.89° C | 86% | 1012.5 hPa | 0 mm | - | 111 W/m² | - |
| 1787983652 | 13.33° C | 86% | 1012.6 hPa | 0 mm | - | 32 W/m² | - |
| 1787983052 | 13.33° C | 87% | 1012.4 hPa | 0 mm | - | 16 W/m² | - |
| 1787982452 | 13.89° C | 86% | 1012.3 hPa | 0 mm | - | 14 W/m² | - |
| 1787981852 | 13.89° C | 86% | 1012.4 hPa | 0 mm | - | 14 W/m² | - |
| 1787981252 | 13.89° C | 86% | 1012.4 hPa | 0 mm | - | 14 W/m² | - |
| 1787980652 | 13.89° C | 87% | 1012.3 hPa | 0 mm | - | 12 W/m² | - |
| 1787980052 | 13.89° C | 87% | 1012.1 hPa | 0 mm | - | 11 W/m² | - |
| 1787979452 | 13.89° C | 86% | 1012.2 hPa | 0 mm | - | 7 W/m² | - |
| 1787978852 | 13.89° C | 86% | 1012.2 hPa | 0 mm | - | 5 W/m² | - |
| 1787978252 | 13.89° C | 86% | 1012.2 hPa | 0 mm | - | 0 W/m² | - |
| 1787977652 | 13.89° C | 86% | 1012.1 hPa | 0 mm | - | 0 W/m² | - |
| 1787977052 | 13.89° C | 86% | 1012.2 hPa | 0 mm | - | 0 W/m² | - |
| 1787976452 | 13.89° C | 86% | 1012.2 hPa | 0 mm | - | 0 W/m² | - |
| 1787975852 | 13.89° C | 86% | 1012.2 hPa | 0 mm | - | 0 W/m² | - |
| 1787975252 | 13.89° C | 86% | 1012.2 hPa | 0 mm | - | 0 W/m² | - |
| 1787974652 | 13.89° C | 86% | 1012.3 hPa | 0 mm | - | 0 W/m² | - |
| 1787974052 | 13.89° C | 86% | 1012.2 hPa | 0 mm | - | 0 W/m² | - |
| 1787973452 | 13.89° C | 86% | 1012.1 hPa | 0 mm | - | 0 W/m² | - |
| 1787972852 | 13.89° C | 86% | 1012 hPa | 0 mm | - | 0 W/m² | - |
| 1787972252 | 14.44° C | 86% | 1012.1 hPa | 0 mm | - | 0 W/m² | - |
* Rain latest hour (hover to see other rain measurements)
** Current wind speed in m/s (hover to see current wind gust speed)